Weather in Juliaca

Peru     15°29′20″S   70°07′58″W
temp.,
°C
wind,
m/s
gust,
m/s
humid.,
%
clouds,
%
prec.,
mm/h
press.,
hPa
HPBL,
m
4 august, wed
wed401:00+3sse118197 0.8 102310
04:00+2se119287 0.1 102411
07:00+3nnw1183100 0.2 1025116
10:00+8ne224946 0.2 10231380
13:00+12n3624100 0.2 10162772
16:00+9ese654135 0.0 1016813
19:00+5ssw677187 0.5 1024415
22:00+3ssw238285 0.1 1026153
5 august, thu
thu501:00+2se118352 0.2 102721
04:000n119244 0.0 102712
07:00+2nnw128548 0.0 1028108
10:00+8w025012 0.0 10231134
13:00+13sse453128 0.0 10152294
16:00+13sw452338 0.0 10132325
19:00+6se34570 0.0 102172
22:00+5nw11680 0.0 102310
6 august, fri
fri601:00+3sw11730 0.0 102211
04:00+2wsw22700 0.0 102313
07:00+4nw11600 0.0 102547
10:00+10ne12380 0.0 10211232
13:00+14ese12203 0.0 10142191
16:00+14ese74190 0.0 10121681
19:00+6e12320 0.0 101916
22:00+5w22381 0.0 102110
7 august, sat
sat701:00+4s22552 0.0 102010
04:00+2s00715 0.0 102110
07:00+5nnw00616 0.0 102348
10:00+11e11360 0.0 10201099
13:00+15ese12224 0.0 10132340
16:00+14ese532461 0.0 10101906
19:00+8s234385 0.0 101772
22:00+6ssw01534 0.0 101910
8 august, sun
sun801:00+4wsw00680 0.0 101910
04:00+3e00751 0.0 101910
07:00+6w00641 0.0 102143
10:00+12ene11395 0.0 10181195
13:00+15ene12255 0.0 10122580
16:00+14ese75286 0.0 10101032
19:00+8s22584 0.0 101722
22:00+7sse237299 0.1 102058